Hyderabad, India

2:46 AM IST on November 23, 2017 (GMT +0530)
Hyderabad

Weather History for VOHY - October, 2012

Change the Weather History Date:

Tuesday, October 30, 2012

  Actual Average Record
Temperature  
Mean Temperature 74 °F -  
Max Temperature 86 °F 82 °F 91 °F (2015)
Min Temperature 62 °F 64 °F 58 °F (2014)
Cooling Degree Days 9    
Growing Degree Days 24 (Base 50)    
Moisture  
Dew Point 52 °F    
Average Humidity 41    
Maximum Humidity 66    
Minimum Humidity 21    
Precipitation  
Precipitation 0.00 in 0.04 in - ()
Sea Level Pressure  
Sea Level Pressure 29.88 in    
Wind  
Wind Speed 6 mph ()    
Max Wind Speed 12 mph    
Max Gust Speed -    
Visibility 3.5 miles    
Events      
Averages and records for this station are not official NWS values.
T = Trace of Precipitation, MM = Missing Value Source: Averaged Metar Reports

Daily Weather History Graph

Daily Weather History Graph

Search for Another Location

Airport or City:

Trip Planner

Search our weather history database for the weather conditions in past years. The results will help you decide how hot, cold, wet, or windy it might be!

Date:

Astronomy

Oct. 30, 2012 Rise Set
Actual Time 6:13 AM IST 5:45 PM IST
Civil Twilight 5:51 AM IST 6:07 PM IST
Nautical Twilight 5:25 AM IST 6:33 PM IST
Astronomical Twilight 5:00 AM IST 6:58 PM IST
Moon 6:06 PM IST (10/30) 6:27 AM IST (10/30)
Length of Visible Light 12h 15m
Length of Day
11h 31m
Full, 100% of the Moon is Illuminated
Oct 30
Full
Nov 7
Last Quarter
Nov 14
New
Nov 20
First Quarter
Nov 28
Full

Hourly Weather History & Observations

Time (IST) Temp. Heat Index Dew Point Humidity Pressure Visibility Wind Dir Wind Speed Gust Speed Precip Events Conditions
2:30 AM 65 °F - 55 °F 62% 29.87 in 2 mi 2.3 mph - -   Haze
5:30 AM 64 °F - 55 °F 66% 29.88 in 2 mi NNW 3.5 mph - -   Haze
6:10 AM 62.6 °F - 48.2 °F 59% 29.95 in 3.1 mi NNW 3.5 mph - N/A   Haze
10:10 AM 82.4 °F - 50.0 °F 32% 30.01 in 3.1 mi NE 9.2 mph - N/A   Haze
11:30 AM 82 °F - 49 °F 21% 29.85 in 6 mi ENE 11.5 mph - -   Scattered Clouds
12:10 PM 80.6 °F - 48.2 °F 32% 29.95 in 3.7 mi ENE 11.5 mph - N/A   Mostly Cloudy
1:10 PM 82.4 °F - 50.0 °F 32% 29.92 in 3.7 mi ENE 6.9 mph - N/A   Mostly Cloudy
2:30 PM 85 °F - 54 °F 25% 29.75 in 6 mi East 11.5 mph - -   Partly Cloudy
3:10 PM 82.4 °F 81.7 °F 55.4 °F 39% 29.86 in 3.7 mi ENE 10.4 mph - N/A   Mostly Cloudy
3:40 PM 82.4 °F 81.4 °F 53.6 °F 37% 29.86 in 3.7 mi ENE 9.2 mph - N/A   Mostly Cloudy
4:10 PM 82.4 °F 81.4 °F 53.6 °F 37% 29.86 in 3.7 mi ENE 10.4 mph - N/A   Mostly Cloudy
4:40 PM 80.6 °F 80.3 °F 53.6 °F 39% 29.89 in 3.7 mi NE 10.4 mph - N/A   Scattered Clouds
5:10 PM 78.8 °F - 53.6 °F 42% 29.89 in 3.7 mi NE 8.1 mph - N/A   Scattered Clouds
5:30 PM 79 °F - 53 °F 29% 29.78 in 6 mi NE 11.5 mph - -   Scattered Clouds
7:10 PM 73.4 °F - 48.2 °F 41% 29.92 in 3.1 mi NE 5.8 mph - N/A   Haze
8:10 PM 73.4 °F - 48.2 °F 41% 29.92 in 3.1 mi Calm Calm - N/A   Haze
8:30 PM 73 °F - 55 °F 44% 29.85 in 2 mi NE 3.5 mph - -   Haze
9:10 PM 71.6 °F - 48.2 °F 43% 29.95 in 3.1 mi Calm Calm - N/A   Haze
11:30 PM 70 °F - 57 °F 53% 29.83 in 2 mi NE 4.6 mph - -   Haze